User: anonymous   Login
Location: Unspecified
(0.0000°N, 0.0000°E)
Time: 03:33:34
(UTC+00:00)
Language:

UHF F/O F4 - Orbit

View from above orbital plane
View from above orbital plane
View from above satellite
View from above satellite

Ground track
Ground track

The orbit data is extracted from the following two-line orbital elements,

1 23467U 95003A   24206.18485691 -.00000025  00000-0  00000-0 0  9993
2 23467   9.6650  15.3563 0004743 116.3621  49.4860  1.00271058108005
Epoch (UTC): 24 July 2024 04:26:11
Eccentricity: 0.0004743
inclination: 9.6650°
perigee height: 35766 km
apogee height: 35806 km
right ascension of ascending node: 15.3563°
argument of perigee: 116.3621°
revolutions per day: 1.00271058
mean anomaly at epoch: 49.4860°
orbit number at epoch: 10800

The dashed part of the orbit path shows where the satellite is in the earth's shadow,  

DLR